Purchase, NY

5:07 PM EDT on September 30, 2016 (GMT -0400)
Westchester County

Weather History for KHPN - April, 2013

Change the Weather History Date:

Friday, April 5, 2013

  Actual Average Record
Temperature  
Mean Temperature 48 °F -  
Max Temperature 60 °F 51 °F 74 °F (1985)
Min Temperature 37 °F 35 °F 21 °F (1982)
Degree Days  
Heating Degree Days 16    
Moisture  
Dew Point 21 °F    
Average Humidity 39    
Maximum Humidity 67    
Minimum Humidity 19    
Precipitation  
Precipitation 0.00 in - - ()
Sea Level Pressure  
Sea Level Pressure 29.88 in    
Wind  
Wind Speed 6 mph (WNW)    
Max Wind Speed 24 mph    
Max Gust Speed 31 mph    
Visibility 10 miles    
Events      
Averages and records for this station are not official NWS values.
T = Trace of Precipitation, MM = Missing Value Source: NWS Daily Summary

Daily Weather History Graph

Daily Weather History Graph

Search for Another Location

Airport or City:

Trip Planner

Search our weather history database for the weather conditions in past years. The results will help you decide how hot, cold, wet, or windy it might be!

Date:

Astronomy

Apr. 05, 2013 Rise Set
Actual Time 6:31 AM EDT 7:24 PM EDT
Civil Twilight 6:03 AM EDT 7:52 PM EDT
Nautical Twilight 5:30 AM EDT 8:25 PM EDT
Astronomical Twilight 4:55 AM EDT 9:00 PM EDT
Moon 3:39 AM EDT (4/5) 2:43 PM EDT (4/5)
Length of Visible Light 13h 49m
Length of Day
12h 53m
Waning Crescent, 24% of the Moon is Illuminated
Apr 5
Waning Crescent
Apr 10
New
Apr 18
First Quarter
Apr 25
Full
May 2
Last Quarter

Hourly Weather History & Observations

Time (EDT) Temp. Windchill Dew Point Humidity Pressure Visibility Wind Dir Wind Speed Gust Speed Precip Events Conditions
12:56 AM 39.9 °F - 25.0 °F 55% 30.06 in 10.0 mi Calm Calm - N/A   Clear
1:56 AM 39.9 °F 36.7 °F 21.0 °F 47% 30.04 in 10.0 mi South 4.6 mph - N/A   Clear
2:56 AM 39.0 °F 36.8 °F 21.9 °F 50% 30.01 in 10.0 mi SSW 3.5 mph - N/A   Clear
3:56 AM 39.0 °F - 24.1 °F 55% 29.99 in 10.0 mi Calm Calm - N/A   Partly Cloudy
4:56 AM 37.0 °F - 27.0 °F 67% 29.97 in 10.0 mi Calm Calm - N/A   Mostly Cloudy
5:56 AM 39.0 °F - 27.0 °F 62% 29.96 in 10.0 mi Calm Calm - N/A   Overcast
6:56 AM 39.9 °F - 27.0 °F 60% 29.94 in 10.0 mi Calm Calm - N/A   Mostly Cloudy
7:56 AM 39.9 °F - 28.9 °F 65% 29.93 in 10.0 mi Calm Calm - N/A   Mostly Cloudy
8:56 AM 42.1 °F - 27.0 °F 55% 29.91 in 10.0 mi Calm Calm - N/A   Scattered Clouds
9:56 AM 46.0 °F - 26.1 °F 46% 29.88 in 10.0 mi Calm Calm - N/A   Clear
10:56 AM 48.9 °F - 23.0 °F 36% 29.86 in 10.0 mi WNW 10.4 mph - N/A   Clear
11:56 AM 52.0 °F - 23.0 °F 32% 29.82 in 10.0 mi NW 9.2 mph - N/A   Clear
12:56 PM 55.9 °F - 18.0 °F 23% 29.78 in 10.0 mi NW 11.5 mph - N/A   Clear
1:56 PM 59.0 °F - 16.0 °F 19% 29.73 in 10.0 mi NW 12.7 mph 18.4 mph N/A   Clear
2:56 PM 60.1 °F - 19.9 °F 21% 29.71 in 10.0 mi NW 12.7 mph 19.6 mph N/A   Clear
3:56 PM 60.1 °F - 21.9 °F 23% 29.71 in 10.0 mi WNW 19.6 mph 29.9 mph N/A   Clear
4:56 PM 57.9 °F - 21.0 °F 24% 29.72 in 10.0 mi NW 19.6 mph - N/A   Clear
5:56 PM 57.0 °F - 17.1 °F 21% 29.76 in 10.0 mi WNW 18.4 mph 24.2 mph N/A   Clear
6:56 PM 53.1 °F - 16.0 °F 23% 29.81 in 10.0 mi WNW 20.7 mph 28.8 mph N/A   Clear
7:56 PM 50.0 °F - 12.9 °F 23% 29.84 in 10.0 mi NW 15.0 mph 28.8 mph N/A   Clear
8:56 PM 48.0 °F - 14.0 °F 26% 29.89 in 10.0 mi NW 11.5 mph - N/A   Clear
9:56 PM 45.0 °F 36.2 °F 17.1 °F 33% 29.93 in 10.0 mi NW 24.2 mph 31.1 mph N/A   Clear
10:56 PM 42.1 °F 35.2 °F 18.0 °F 38% 29.96 in 10.0 mi NW 12.7 mph 28.8 mph N/A   Clear
11:56 PM 39.9 °F 31.8 °F 17.1 °F 40% 29.98 in 10.0 mi NW 15.0 mph 26.5 mph N/A   Clear